When you browse on this site, cookies collect data to enhance your experience and personalize the content and advertising you see.
Visit our Privacy Policy to learn more. By continuing to use the site, you agree to this use of cookies and data.
  • In Deutschland
  • Länderverzeichnis
  • Für 7 Tage
  • Wassertemperatur
  • Wetterkarte
  • Widgets
  • user-avatar
    Anmelden

    Stündliche Wetter Dortmund

    Heute, 20 August, Dienstag

    Zeit Temperatur Niederschläge Wind Luftdruck Luftfeuchtigkeit
    00:00 +16°C° 0 mm 2 m/S 756 mmHg 71%
    01:00 +15°C° 0 mm 2 m/S 756 mmHg 72%
    02:00 +15°C° 0 mm 2 m/S 756 mmHg 73%
    03:00 +14°C° 0 mm 2 m/S 757 mmHg 75%
    04:00 +15°C° 0 mm 2 m/S 757 mmHg 74%
    05:00 +15°C° 0 mm 2 m/S 757 mmHg 74%
    06:00 +14°C° 0 mm 3 m/S 757 mmHg 74%
    07:00 +16°C° 0 mm 3 m/S 757 mmHg 69%
    08:00 +18°C° 0 mm 3 m/S 758 mmHg 64%
    09:00 +19°C° 0 mm 3 m/S 758 mmHg 59%
    10:00 +20°C° 0 mm 3 m/S 758 mmHg 55%
    11:00 +21°C° 0 mm 3 m/S 758 mmHg 52%
    12:00 +23°C° 0 mm 2 m/S 758 mmHg 48%
    13:00 +22°C° 0 mm 3 m/S 758 mmHg 46%
    14:00 +22°C° 0 mm 3 m/S 758 mmHg 45%
    15:00 +22°C° 0 mm 3 m/S 758 mmHg 44%
    16:00 +21°C° 0.1 mm 3 m/S 758 mmHg 50%
    17:00 +20°C° 0.1 mm 2 m/S 758 mmHg 56%
    18:00 +19°C° 0.1 mm 2 m/S 758 mmHg 62%
    19:00 +18°C° 0 mm 2 m/S 759 mmHg 65%
    20:00 +17°C° 0 mm 2 m/S 759 mmHg 69%
    21:00 +16°C° 0 mm 1 m/S 760 mmHg 72%
    22:00 +15°C° 0 mm 1 m/S 760 mmHg 74%
    23:00 +15°C° 0 mm 1 m/S 760 mmHg 76%

    Morgen, 21 August, Mittwoch

    Zeit Temperatur Niederschläge Wind Luftdruck Luftfeuchtigkeit
    00:00 +14°C° 0 mm 1 m/S 761 mmHg 78%
    01:00 +14°C° 0 mm 1 m/S 761 mmHg 79%
    02:00 +13°C° 0 mm 1 m/S 761 mmHg 80%
    03:00 +13°C° 0 mm 1 m/S 761 mmHg 81%
    04:00 +14°C° 0 mm 1 m/S 761 mmHg 79%
    05:00 +14°C° 0 mm 1 m/S 762 mmHg 77%
    06:00 +15°C° 0 mm 1 m/S 762 mmHg 75%
    07:00 +16°C° 0 mm 1 m/S 762 mmHg 66%
    08:00 +19°C° 0 mm 1 m/S 762 mmHg 57%
    09:00 +21°C° 0 mm 1 m/S 762 mmHg 48%
    10:00 +22°C° 0 mm 1 m/S 762 mmHg 44%
    11:00 +23°C° 0 mm 1 m/S 761 mmHg 40%
    12:00 +24°C° 0 mm 1 m/S 761 mmHg 36%
    13:00 +24°C° 0 mm 1 m/S 761 mmHg 36%
    14:00 +24°C° 0 mm 1 m/S 761 mmHg 35%
    15:00 +24°C° 0 mm 1 m/S 761 mmHg 35%
    16:00 +23°C° 0 mm 1 m/S 761 mmHg 40%
    17:00 +22°C° 0 mm 1 m/S 761 mmHg 45%
    18:00 +21°C° 0 mm 1 m/S 760 mmHg 51%
    19:00 +20°C° 0 mm 1 m/S 761 mmHg 53%
    20:00 +19°C° 0 mm 1 m/S 761 mmHg 56%
    21:00 +18°C° 0 mm 1 m/S 761 mmHg 58%
    22:00 +16°C° 0 mm 1 m/S 761 mmHg 60%
    23:00 +16°C° 0 mm 1 m/S 761 mmHg 61%

    übermorgen, 22 August, Donnerstag

    Zeit Temperatur Niederschläge Wind Luftdruck Luftfeuchtigkeit
    00:00 +16°C° 0 mm 1 m/S 761 mmHg 62%
    01:00 +15°C° 0 mm 1 m/S 760 mmHg 64%
    02:00 +15°C° 0 mm 1 m/S 760 mmHg 66%
    03:00 +15°C° 0 mm 1 m/S 760 mmHg 67%
    04:00 +16°C° 0 mm 1 m/S 760 mmHg 67%
    05:00 +16°C° 0 mm 1 m/S 760 mmHg 66%
    06:00 +18°C° 0 mm 1 m/S 760 mmHg 66%
    07:00 +20°C° 0 mm 1 m/S 760 mmHg 60%
    08:00 +21°C° 0 mm 2 m/S 760 mmHg 54%
    09:00 +24°C° 0 mm 2 m/S 760 mmHg 48%
    10:00 +25°C° 0 mm 2 m/S 760 mmHg 45%
    11:00 +26°C° 0 mm 2 m/S 760 mmHg 41%
    12:00 +27°C° 0 mm 3 m/S 760 mmHg 38%
    13:00 +27°C° 0 mm 3 m/S 760 mmHg 38%
    14:00 +27°C° 0 mm 3 m/S 760 mmHg 38%
    15:00 +27°C° 0 mm 3 m/S 760 mmHg 37%
    16:00 +25°C° 0 mm 2 m/S 760 mmHg 43%
    17:00 +24°C° 0 mm 2 m/S 760 mmHg 48%
    18:00 +21°C° 0 mm 2 m/S 760 mmHg 54%
    19:00 +20°C° 0 mm 2 m/S 760 mmHg 57%
    20:00 +20°C° 0 mm 1 m/S 761 mmHg 61%
    21:00 +19°C° 0 mm 1 m/S 761 mmHg 64%
    22:00 +19°C° 0 mm 1 m/S 761 mmHg 65%
    23:00 +18°C° 0 mm 1 m/S 761 mmHg 65%

    23 August, Freitag

    Zeit Temperatur Niederschläge Wind Luftdruck Luftfeuchtigkeit
    00:00 +18°C° 0 mm 1 m/S 761 mmHg 66%
    01:00 +18°C° 0 mm 1 m/S 761 mmHg 67%
    02:00 +16°C° 0 mm 1 m/S 761 mmHg 67%
    03:00 +16°C° 0 mm 1 m/S 761 mmHg 68%
    04:00 +18°C° 0 mm 1 m/S 761 mmHg 67%
    05:00 +18°C° 0 mm 1 m/S 761 mmHg 66%
    06:00 +19°C° 0 mm 1 m/S 761 mmHg 65%
    07:00 +21°C° 0 mm 1 m/S 761 mmHg 58%
    08:00 +23°C° 0 mm 1 m/S 761 mmHg 52%
    09:00 +25°C° 0 mm 1 m/S 761 mmHg 46%
    10:00 +26°C° 0 mm 1 m/S 761 mmHg 42%
    11:00 +28°C° 0 mm 1 m/S 760 mmHg 39%
    12:00 +29°C° 0 mm 1 m/S 760 mmHg 36%
    13:00 +29°C° 0 mm 2 m/S 760 mmHg 36%
    14:00 +29°C° 0 mm 2 m/S 759 mmHg 36%
    15:00 +29°C° 0 mm 2 m/S 759 mmHg 35%
    16:00 +28°C° 0 mm 2 m/S 759 mmHg 41%
    17:00 +27°C° 0 mm 2 m/S 759 mmHg 46%
    18:00 +25°C° 0 mm 2 m/S 759 mmHg 51%
    19:00 +24°C° 0 mm 2 m/S 759 mmHg 54%
    20:00 +23°C° 0 mm 2 m/S 759 mmHg 57%
    21:00 +21°C° 0 mm 2 m/S 759 mmHg 60%
    22:00 +20°C° 0 mm 2 m/S 759 mmHg 60%
    23:00 +20°C° 0 mm 2 m/S 758 mmHg 59%

    24 August, Samstag

    Zeit Temperatur Niederschläge Wind Luftdruck Luftfeuchtigkeit
    00:00 +19°C° 0 mm 2 m/S 758 mmHg 59%
    01:00 +19°C° 0 mm 2 m/S 758 mmHg 61%
    02:00 +19°C° 0 mm 2 m/S 757 mmHg 62%
    03:00 +18°C° 0 mm 2 m/S 757 mmHg 64%
    04:00 +19°C° 0 mm 1 m/S 757 mmHg 65%
    05:00 +20°C° 0 mm 1 m/S 757 mmHg 66%
    06:00 +20°C° 0 mm 1 m/S 757 mmHg 67%
    07:00 +22°C° 0 mm 1 m/S 757 mmHg 60%
    08:00 +24°C° 0 mm 1 m/S 757 mmHg 53%
    09:00 +27°C° 0 mm 1 m/S 757 mmHg 47%
    10:00 +28°C° 0 mm 1 m/S 756 mmHg 42%
    11:00 +29°C° 0 mm 1 m/S 756 mmHg 38%
    12:00 +30°C° 0 mm 1 m/S 755 mmHg 34%
    13:00 +30°C° 0 mm 1 m/S 755 mmHg 33%
    14:00 +31°C° 0 mm 1 m/S 755 mmHg 32%
    15:00 +31°C° 0 mm 1 m/S 754 mmHg 31%
    16:00 +29°C° 0 mm 1 m/S 754 mmHg 37%
    17:00 +28°C° 0 mm 1 m/S 754 mmHg 42%
    18:00 +26°C° 0 mm 1 m/S 754 mmHg 48%
    19:00 +25°C° 0 mm 1 m/S 754 mmHg 50%
    20:00 +24°C° 0 mm 1 m/S 754 mmHg 53%
    21:00 +23°C° 0 mm 1 m/S 754 mmHg 55%
    22:00 +23°C° 0 mm 1 m/S 754 mmHg 57%
    23:00 +22°C° 0 mm 1 m/S 754 mmHg 58%

    25 August, Sonntag

    Zeit Temperatur Niederschläge Wind Luftdruck Luftfeuchtigkeit
    00:00 +22°C° 0 mm 1 m/S 754 mmHg 59%
    01:00 +22°C° 0 mm 1 m/S 754 mmHg 61%
    02:00 +21°C° 0 mm 1 m/S 754 mmHg 62%
    03:00 +21°C° 0 mm 1 m/S 753 mmHg 63%
    04:00 +21°C° 0 mm 1 m/S 753 mmHg 63%
    05:00 +22°C° 0 mm 1 m/S 753 mmHg 63%
    06:00 +20°C° 0 mm 0 m/S 753 mmHg 64%
    07:00 +22°C° 0 mm 0 m/S 754 mmHg 58%
    08:00 +24°C° 0 mm 0 m/S 754 mmHg 52%
    09:00 +26°C° 0 mm 0 m/S 754 mmHg 47%
    10:00 +30°C° 0 mm 1 m/S 754 mmHg 43%
    11:00 +31°C° 0 mm 1 m/S 753 mmHg 40%
    12:00 +32°C° 0 mm 1 m/S 753 mmHg 37%
    13:00 +32°C° 0 mm 1 m/S 753 mmHg 36%
    14:00 +32°C° 0 mm 2 m/S 753 mmHg 35%
    15:00 +32°C° 0 mm 2 m/S 752 mmHg 34%
    16:00 +30°C° 0 mm 2 m/S 752 mmHg 40%
    17:00 +29°C° 0 mm 2 m/S 753 mmHg 46%
    18:00 +27°C° 0 mm 2 m/S 753 mmHg 51%
    19:00 +26°C° 0 mm 2 m/S 753 mmHg 55%
    20:00 +25°C° 0 mm 2 m/S 753 mmHg 58%
    21:00 +24°C° 0 mm 2 m/S 753 mmHg 61%
    22:00 +23°C° 0 mm 1 m/S 753 mmHg 62%
    23:00 +23°C° 0 mm 1 m/S 753 mmHg 63%
    Mehr zeigen